Cape Girardeau, MO

1:36 AM CST on November 22, 2017 (GMT -0600)
Cape Girardeau Regional

Weather History for KCGI - July, 2013

Change the Weather History Date:

Saturday, July 27, 2013

  Actual Average Record
Temperature  
Mean Temperature 71 °F 78 °F  
Max Temperature 83 °F 89 °F 99 °F (1993)
Min Temperature 59 °F 68 °F 49 °F (1962)
Degree Days  
Heating Degree Days 0 0  
Month to date heating degree days 0 0  
Since 1 June heating degree days 0 4  
Since 1 July heating degree days 0 0  
Cooling Degree Days 6 13  
Month to date cooling degree days 313 373  
Year to date cooling degree days 817 837  
Since 1 June cooling degree days 646 685  
Growing Degree Days 23 (Base 50)    
Moisture  
Dew Point 64 °F    
Average Humidity 71    
Maximum Humidity 97    
Minimum Humidity 45    
Precipitation  
Precipitation 0.03 in 0.10 in 0.64 in (2016)
Month to date precipitation 0.28 2.94  
Year to date precipitation 24.21 27.61  
Sea Level Pressure  
Sea Level Pressure 29.96 in    
Wind  
Wind Speed 6 mph (NW)    
Max Wind Speed 14 mph    
Max Gust Speed 21 mph    
Visibility 9 miles    
Events Rain    
T = Trace of Precipitation, MM = Missing Value Source: NWS Daily Summary

Daily Weather History Graph

Daily Weather History Graph

Search for Another Location

Airport or City:

Trip Planner

Search our weather history database for the weather conditions in past years. The results will help you decide how hot, cold, wet, or windy it might be!

Date:

Astronomy

Jul. 27, 2013 Rise Set
Actual Time 5:59 AM CDT 8:09 PM CDT
Civil Twilight 5:29 AM CDT 8:39 PM CDT
Nautical Twilight 4:54 AM CDT 9:14 PM CDT
Astronomical Twilight 4:15 AM CDT 9:53 PM CDT
Moon 11:06 PM CDT (7/27) 11:30 AM CDT (7/27)
Length of Visible Light 15h 09m
Length of Day
14h 10m
Waning Gibbous, 70% of the Moon is Illuminated
Jul 27
Waning Gibbous
Jul 29
Last Quarter
Aug 6
New
Aug 14
First Quarter
Aug 20
Full

Hourly Weather History & Observations

Time (CDT) Temp. Heat Index Dew Point Humidity Pressure Visibility Wind Dir Wind Speed Gust Speed Precip Events Conditions
12:53 AM 69.1 °F - 66.9 °F 93% 29.99 in 8.0 mi South 3.5 mph - N/A   Overcast
1:53 AM 69.1 °F - 66.9 °F 93% 29.98 in 10.0 mi SW 4.6 mph - N/A   Overcast
2:53 AM 70.0 °F - 68.0 °F 93% 29.98 in 10.0 mi North 3.5 mph - N/A   Overcast
3:19 AM 69.8 °F - 68.0 °F 94% 29.98 in 7.0 mi Calm Calm - 0.00 in   Overcast
3:53 AM 70.0 °F - 68.0 °F 93% 29.97 in 4.0 mi NNW 3.5 mph - 0.00 in Rain Light Rain
4:53 AM 69.1 °F - 68.0 °F 96% 29.96 in 8.0 mi WSW 3.5 mph - 0.00 in   Overcast
5:15 AM 69.8 °F - 68.0 °F 94% 29.97 in 7.0 mi WSW 4.6 mph - N/A   Overcast
5:45 AM 69.8 °F - 68.0 °F 94% 29.97 in 4.0 mi WSW 5.8 mph - 0.01 in Rain Light Rain
5:53 AM 69.1 °F - 68.0 °F 96% 29.96 in 5.0 mi West 5.8 mph - 0.01 in Rain Light Rain
6:53 AM 70.0 °F - 66.9 °F 90% 29.98 in 9.0 mi West 5.8 mph - 0.02 in   Overcast
7:22 AM 69.8 °F - 68.0 °F 94% 29.98 in 8.0 mi West 5.8 mph - N/A   Overcast
7:37 AM 71.6 °F - 68.0 °F 88% 29.98 in 9.0 mi West 4.6 mph - N/A   Overcast
7:53 AM 72.0 °F - 68.0 °F 87% 29.98 in 10.0 mi West 5.8 mph - N/A   Mostly Cloudy
8:05 AM 73.4 °F - 68.0 °F 83% 29.98 in 10.0 mi West 5.8 mph - N/A   Mostly Cloudy
8:19 AM 73.4 °F - 69.8 °F 88% 29.98 in 10.0 mi West 8.1 mph - N/A   Overcast
8:39 AM 73.4 °F - 68.0 °F 83% 29.98 in 10.0 mi WNW 4.6 mph - N/A   Overcast
8:53 AM 73.0 °F - 68.0 °F 84% 29.98 in 10.0 mi NW 5.8 mph - N/A   Overcast
9:11 AM 73.4 °F - 68.0 °F 83% 29.98 in 10.0 mi NNW 8.1 mph - N/A   Mostly Cloudy
9:53 AM 73.0 °F - 66.9 °F 81% 29.98 in 10.0 mi North 6.9 mph - N/A   Overcast
10:53 AM 77.0 °F - 66.0 °F 69% 29.97 in 10.0 mi North 3.5 mph - N/A   Mostly Cloudy
11:25 AM 77.0 °F - 66.2 °F 69% 29.97 in 10.0 mi NNW 6.9 mph - N/A   Mostly Cloudy
11:53 AM 79.0 °F - 66.0 °F 64% 29.96 in 10.0 mi NNW 10.4 mph - N/A   Scattered Clouds
12:53 PM 81.0 °F 82.7 °F 64.9 °F 58% 29.95 in 10.0 mi North 8.1 mph - N/A   Scattered Clouds
1:53 PM 82.0 °F 83.0 °F 62.1 °F 51% 29.94 in 10.0 mi North 8.1 mph - N/A   Mostly Cloudy
2:53 PM 82.0 °F 82.7 °F 61.0 °F 49% 29.94 in 10.0 mi NW 10.4 mph - N/A   Scattered Clouds
3:53 PM 81.0 °F 81.1 °F 57.9 °F 45% 29.92 in 10.0 mi NNW 11.5 mph 17.3 mph N/A   Partly Cloudy
4:53 PM 81.0 °F 81.0 °F 57.0 °F 44% 29.92 in 10.0 mi NW 8.1 mph 17.3 mph N/A   Partly Cloudy
5:53 PM 79.0 °F - 57.0 °F 47% 29.91 in 10.0 mi North 11.5 mph - N/A   Clear
6:53 PM 77.0 °F - 57.0 °F 50% 29.93 in 10.0 mi North 8.1 mph - N/A   Mostly Cloudy
7:53 PM 73.0 °F - 57.0 °F 57% 29.94 in 10.0 mi North 6.9 mph - N/A   Clear
8:53 PM 69.1 °F - 57.0 °F 65% 29.96 in 10.0 mi North 4.6 mph - N/A   Clear
9:53 PM 66.9 °F - 55.0 °F 66% 29.97 in 10.0 mi North 6.9 mph - N/A   Clear
10:53 PM 64.9 °F - 54.0 °F 68% 29.98 in 10.0 mi NE 4.6 mph - N/A   Clear
11:53 PM 64.0 °F - 53.1 °F 67% 29.99 in 10.0 mi NNE 3.5 mph - N/A   Clear